Location: Great Snoring
(52.8667°N, 0.8833°E)
Time: 14:19:36
(UTC+00:00)

Okean O Rocket - Pass Details

Date: 19 May 2025
Orbit: 614 x 636 km, 98.0° (Epoch: 17 June)

Event Time Altitude Azimuth Distance (km) Brightness Sun altitude
Rises 21:35:39 0° 209° (SSW) 2,907 4.7 -11.3°
Reaches altitude 10° 21:38:33 10° 230° (SW) 2,001 4.1 -11.5°
Maximum altitude 21:41:22 17° 271° (W) 1,601 4.1 -11.8°
Drops below altitude 10° 21:44:12 10° 312° (NW) 2,003 5.5 -12.0°
Sets 21:47:07 0° 333° (NNW) 2,911 7.2 -12.2°
